Location: Newark
(34.9500°N, 139.9667°E)
Time: 16:08:23
(UTC+00:00)

Vanguard 1 Rocket - Pass Details

Date: 10 December 2019
Orbit: 650 x 4226 km, 34.3° (Epoch: 17 January)

Event Time Altitude Azimuth Distance (km) Brightness Sun altitude
Rises 17:07:31 0° 282° (WNW) 4,586 - -54.4°
Reaches altitude 10° 17:11:27 10° 275° (W) 3,108 - -53.6°
Maximum altitude 17:17:36 34° 212° (SSW) 1,330 - -52.3°
Drops below altitude 10° 17:21:51 10° 145° (SE) 2,131 - -51.5°
Sets 17:24:04 0° 135° (SE) 2,963 - -51.0°
